AAL1285 KAUS-KCLT

Flight info

Callsign AAL1285
Flight time 2h 4m
Altitude 37000
Route ILEXY4 ZENZI INCIN DOOMS STEIT DRSDN BESTT JONZE5
Aircraft B738/M-SDE2E3FGHIRWXY/LB1

Departure

Time 2026-05-06 22:58
Airport Austin Bergstrom International Airport (KAUS)

Arrival

Time 2026-05-07 01:02
Airport Charlotte Douglas International Airport (KCLT)
Time Latitude Longitude Altitude Speed Heading
2026-05-06 22:23 30.20166 -97.66952 518 ft 0 kts 22°
2026-05-06 22:38 30.20161 -97.66954 518 ft 2 kts 22°
2026-05-06 22:38 30.20143 -97.66963 517 ft 3 kts 22°
2026-05-06 22:38 30.20124 -97.66972 517 ft 3 kts 26°
2026-05-06 22:38 30.20109 -97.66984 517 ft 3 kts 55°
2026-05-06 22:39 30.20101 -97.67004 517 ft 3 kts 83°
2026-05-06 22:39 30.20100 -97.67020 518 ft 1 kts 89°
2026-05-06 22:47 30.20100 -97.67019 518 ft 1 kts 89°
2026-05-06 22:47 30.20100 -97.66996 517 ft 5 kts 89°
2026-05-06 22:47 30.20101 -97.66929 516 ft 10 kts 90°
2026-05-06 22:48 30.20074 -97.66911 515 ft 5 kts 222°
2026-05-06 22:48 30.20055 -97.66962 516 ft 8 kts 235°
2026-05-06 22:48 30.19990 -97.66987 515 ft 13 kts 179°
2026-05-06 22:48 30.19907 -97.66967 513 ft 12 kts 126°
2026-05-06 22:49 30.19903 -97.66854 511 ft 16 kts 89°
2026-05-06 22:49 30.19906 -97.66718 509 ft 18 kts 89°
2026-05-06 22:49 30.19909 -97.66568 507 ft 19 kts 89°
2026-05-06 22:49 30.19912 -97.66423 505 ft 17 kts 89°
2026-05-06 22:50 30.19915 -97.66285 501 ft 18 kts 89°
2026-05-06 22:50 30.19918 -97.66138 490 ft 18 kts 88°
2026-05-06 22:50 30.19920 -97.66016 489 ft 15 kts 88°
2026-05-06 22:50 30.19913 -97.65922 490 ft 11 kts 126°
2026-05-06 22:51 30.19841 -97.65903 490 ft 11 kts 178°
2026-05-06 22:51 30.19768 -97.65901 490 ft 10 kts 179°
2026-05-06 22:51 30.19695 -97.65899 487 ft 11 kts 179°
2026-05-06 22:51 30.19607 -97.65897 486 ft 14 kts 178°
2026-05-06 22:52 30.19504 -97.65894 489 ft 16 kts 179°
2026-05-06 22:52 30.19388 -97.65891 488 ft 18 kts 179°
2026-05-06 22:52 30.19256 -97.65888 492 ft 20 kts 179°
2026-05-06 22:52 30.19104 -97.65884 491 ft 23 kts 179°
2026-05-06 22:53 30.18945 -97.65880 489 ft 23 kts 179°
2026-05-06 22:53 30.18794 -97.65875 487 ft 22 kts 179°
2026-05-06 22:53 30.18644 -97.65872 482 ft 21 kts 179°
2026-05-06 22:53 30.18498 -97.65868 483 ft 21 kts 178°
2026-05-06 22:54 30.18357 -97.65864 479 ft 20 kts 178°
2026-05-06 22:54 30.18220 -97.65860 475 ft 19 kts 179°
2026-05-06 22:54 30.18087 -97.65858 476 ft 19 kts 178°
2026-05-06 22:54 30.17978 -97.65854 478 ft 15 kts 179°
2026-05-06 22:55 30.17961 -97.65854 474 ft 0 kts 178°
2026-05-06 22:55 30.17959 -97.65854 474 ft 2 kts 177°
2026-05-06 22:55 30.17933 -97.65843 480 ft 6 kts 144°
2026-05-06 22:55 30.17919 -97.65786 479 ft 10 kts 88°
2026-05-06 22:56 30.17928 -97.65731 481 ft 7 kts 45°
2026-05-06 22:56 30.17986 -97.65727 476 ft 8 kts 358°
2026-05-06 22:56 30.18000 -97.65728 476 ft 1 kts 358°
2026-05-06 22:56 30.18008 -97.65728 475 ft 2 kts 358°
2026-05-06 22:57 30.18069 -97.65730 477 ft 26 kts 359°
2026-05-06 22:57 30.18504 -97.65741 481 ft 97 kts 359°
2026-05-06 22:57 30.19384 -97.65766 512 ft 153 kts 359°
2026-05-06 22:57 30.20488 -97.65809 1078 ft 159 kts 358°
2026-05-06 22:58 30.21616 -97.65829 1784 ft 161 kts
2026-05-06 22:58 30.22774 -97.65821 2350 ft 179 kts
2026-05-06 22:58 30.24108 -97.65852 2641 ft 200 kts 358°
2026-05-06 22:58 30.25585 -97.65914 2779 ft 225 kts 358°
2026-05-06 22:59 30.27205 -97.65984 3156 ft 241 kts 358°
2026-05-06 22:59 30.28928 -97.66075 3408 ft 265 kts 356°
2026-05-06 22:59 30.30824 -97.66211 3955 ft 275 kts 355°
2026-05-06 22:59 30.32723 -97.66376 4916 ft 271 kts 353°
2026-05-06 23:00 30.34599 -97.66568 5744 ft 273 kts 352°
2026-05-06 23:00 30.36532 -97.66510 6393 ft 285 kts 13°
2026-05-06 23:00 30.38214 -97.65319 7228 ft 291 kts 44°
2026-05-06 23:00 30.39229 -97.63258 7797 ft 303 kts 76°
2026-05-06 23:01 30.39287 -97.60817 8511 ft 302 kts 98°
2026-05-06 23:01 30.39038 -97.58428 9469 ft 299 kts 99°
2026-05-06 23:01 30.38823 -97.55993 9950 ft 312 kts 99°
2026-05-06 23:01 30.38607 -97.53429 10240 ft 329 kts 98°
2026-05-06 23:02 30.38384 -97.50710 10474 ft 347 kts 98°
2026-05-06 23:02 30.38161 -97.47902 10961 ft 354 kts 98°
2026-05-06 23:02 30.37939 -97.45039 11522 ft 359 kts 98°
2026-05-06 23:02 30.37714 -97.42136 12117 ft 364 kts 98°
2026-05-06 23:03 30.37488 -97.39233 12722 ft 369 kts 98°
2026-05-06 23:03 30.37255 -97.36239 13336 ft 375 kts 97°
2026-05-06 23:03 30.37018 -97.33210 13937 ft 380 kts 97°
2026-05-06 23:03 30.36778 -97.30149 14547 ft 383 kts 98°
2026-05-06 23:04 30.36535 -97.27059 15199 ft 386 kts 98°
2026-05-06 23:04 30.36289 -97.23952 15838 ft 390 kts 98°
2026-05-06 23:04 30.36039 -97.20805 16447 ft 394 kts 98°
2026-05-06 23:04 30.35818 -97.17619 17081 ft 399 kts 96°
2026-05-06 23:05 30.35639 -97.14403 17720 ft 403 kts 96°
2026-05-06 23:05 30.35462 -97.11187 18317 ft 407 kts 96°
2026-05-06 23:05 30.35275 -97.07898 18823 ft 411 kts 96°
2026-05-06 23:05 30.35081 -97.04564 19307 ft 417 kts 96°
2026-05-06 23:06 30.34884 -97.01193 19785 ft 423 kts 96°
2026-05-06 23:06 30.34691 -96.97784 20260 ft 428 kts 96°
2026-05-06 23:06 30.34489 -96.94319 20757 ft 433 kts 96°
2026-05-06 23:06 30.34278 -96.90825 21240 ft 438 kts 96°
2026-05-06 23:07 30.34065 -96.87295 21716 ft 442 kts 96°
2026-05-06 23:07 30.33854 -96.83719 22178 ft 447 kts 96°
2026-05-06 23:07 30.33636 -96.80116 22627 ft 452 kts 96°
2026-05-06 23:07 30.33412 -96.76462 23065 ft 457 kts 96°
2026-05-06 23:08 30.33185 -96.72770 23504 ft 462 kts 96°
2026-05-06 23:08 30.32955 -96.69045 23885 ft 465 kts 96°
2026-05-06 23:08 30.32724 -96.65342 24270 ft 469 kts 96°
2026-05-06 23:08 30.32483 -96.61524 24647 ft 472 kts 96°
2026-05-06 23:09 30.32243 -96.57769 25001 ft 476 kts 96°
2026-05-06 23:09 30.31999 -96.53916 25354 ft 480 kts 96°
2026-05-06 23:09 30.31754 -96.50048 25708 ft 483 kts 96°
2026-05-06 23:09 30.31509 -96.46153 26040 ft 487 kts 96°
2026-05-06 23:10 30.31265 -96.42241 26387 ft 490 kts 96°
2026-05-06 23:10 30.31016 -96.38288 26742 ft 493 kts 96°
2026-05-06 23:10 30.30764 -96.34311 27084 ft 497 kts 96°
2026-05-06 23:10 30.30507 -96.30307 27417 ft 500 kts 96°
2026-05-06 23:11 30.30250 -96.26330 27716 ft 504 kts 97°
2026-05-06 23:11 30.29978 -96.22285 28033 ft 507 kts 97°
2026-05-06 23:11 30.29709 -96.18202 28364 ft 510 kts 96°
2026-05-06 23:11 30.29442 -96.14095 28685 ft 513 kts 96°
2026-05-06 23:12 30.29240 -96.09959 28988 ft 517 kts 91°
2026-05-06 23:12 30.29495 -96.05789 29285 ft 521 kts 82°
2026-05-06 23:12 30.30218 -96.01669 29615 ft 523 kts 72°
2026-05-06 23:12 30.31425 -95.97711 29931 ft 523 kts 66°
2026-05-06 23:13 30.32771 -95.93784 30208 ft 525 kts 65°
2026-05-06 23:13 30.34154 -95.89855 30477 ft 527 kts 65°
2026-05-06 23:13 30.35542 -95.85910 30777 ft 530 kts 65°
2026-05-06 23:13 30.36921 -95.81942 31069 ft 531 kts 65°
2026-05-06 23:14 30.38287 -95.77951 31366 ft 534 kts 66°
2026-05-06 23:14 30.39641 -95.73950 31637 ft 536 kts 66°
2026-05-06 23:14 30.40994 -95.69915 31887 ft 538 kts 66°
2026-05-06 23:14 30.42348 -95.65860 32148 ft 540 kts 66°
2026-05-06 23:15 30.43700 -95.61804 32414 ft 542 kts 66°
2026-05-06 23:15 30.45061 -95.57717 32679 ft 543 kts 66°
2026-05-06 23:15 30.46420 -95.53634 32929 ft 545 kts 66°
2026-05-06 23:15 30.47784 -95.49533 33227 ft 544 kts 66°
2026-05-06 23:16 30.49132 -95.45478 33560 ft 543 kts 67°
2026-05-06 23:16 30.50486 -95.41403 33881 ft 542 kts 67°
2026-05-06 23:16 30.51842 -95.37317 34138 ft 542 kts 66°
2026-05-06 23:16 30.53196 -95.33234 34402 ft 541 kts 66°
2026-05-06 23:17 30.54546 -95.29156 34677 ft 540 kts 66°
2026-05-06 23:17 30.55892 -95.25086 34945 ft 539 kts 66°
2026-05-06 23:17 30.57234 -95.21021 35206 ft 539 kts 66°
2026-05-06 23:17 30.58571 -95.16969 35483 ft 538 kts 66°
2026-05-06 23:18 30.59890 -95.12963 35730 ft 537 kts 66°
2026-05-06 23:18 30.61241 -95.08859 35986 ft 536 kts 66°
2026-05-06 23:18 30.62551 -95.04874 36213 ft 536 kts 66°
2026-05-06 23:18 30.63876 -95.00838 36448 ft 535 kts 66°
2026-05-06 23:19 30.65201 -94.96797 36694 ft 534 kts 66°
2026-05-06 23:19 30.66520 -94.92767 36891 ft 534 kts 66°
2026-05-06 23:19 30.67839 -94.88735 36872 ft 533 kts 66°
2026-05-06 23:20 30.70452 -94.80728 36873 ft 526 kts 66°
2026-05-06 23:20 30.73036 -94.72791 36880 ft 523 kts 66°
2026-05-06 23:21 30.75602 -94.64895 36881 ft 522 kts 66°
2026-05-06 23:21 30.78146 -94.57049 36885 ft 521 kts 66°
2026-05-06 23:22 30.80700 -94.49151 36885 ft 521 kts 66°
2026-05-06 23:22 30.83250 -94.41249 36874 ft 522 kts 66°
2026-05-06 23:23 30.85802 -94.33317 36881 ft 523 kts 66°
2026-05-06 23:23 30.88350 -94.25380 36878 ft 524 kts 66°
2026-05-06 23:24 30.90898 -94.17423 36874 ft 525 kts 66°
2026-05-06 23:24 30.93450 -94.09434 36877 ft 526 kts 66°
2026-05-06 23:25 30.96003 -94.01423 36868 ft 528 kts 66°
2026-05-06 23:25 30.98536 -93.93453 36877 ft 528 kts 66°
2026-05-06 23:26 31.01083 -93.85422 36877 ft 529 kts 66°
2026-05-06 23:26 31.03633 -93.77367 36863 ft 529 kts 69°
2026-05-06 23:27 31.06172 -93.69318 36872 ft 531 kts 69°
2026-05-06 23:27 31.08718 -93.61222 36864 ft 530 kts 69°
2026-05-06 23:28 31.11247 -93.53165 36869 ft 529 kts 69°
2026-05-06 23:28 31.13769 -93.45111 36870 ft 527 kts 69°
2026-05-06 23:29 31.16273 -93.37092 36874 ft 526 kts 69°
2026-05-06 23:29 31.18769 -93.29083 36867 ft 525 kts 69°
2026-05-06 23:30 31.21244 -93.21117 36869 ft 522 kts 69°
2026-05-06 23:30 31.23715 -93.13148 36874 ft 519 kts 69°
2026-05-06 23:31 31.26166 -93.05222 36880 ft 517 kts 69°
2026-05-06 23:31 31.28598 -92.97336 36888 ft 514 kts 69°
2026-05-06 23:32 31.30999 -92.89532 36881 ft 512 kts 69°
2026-05-06 23:32 31.33398 -92.81714 36883 ft 510 kts 69°
2026-05-06 23:33 31.35799 -92.73900 36907 ft 510 kts 69°
2026-05-06 23:33 31.38399 -92.66180 36876 ft 510 kts 66°
2026-05-06 23:34 31.40644 -92.59775 36878 ft 511 kts 66°
2026-05-06 23:34 31.43320 -92.52071 36890 ft 511 kts 67°
2026-05-06 23:35 31.45973 -92.44318 36874 ft 513 kts 67°
2026-05-06 23:35 31.48610 -92.36552 36881 ft 514 kts 67°
2026-05-06 23:36 31.51235 -92.28804 36871 ft 515 kts 67°
2026-05-06 23:36 31.53877 -92.20993 36896 ft 515 kts 68°
2026-05-06 23:37 31.56517 -92.13172 36905 ft 515 kts 68°
2026-05-06 23:37 31.59151 -92.05351 36903 ft 515 kts 68°
2026-05-06 23:38 31.61777 -91.97534 36935 ft 515 kts 68°
2026-05-06 23:38 31.64394 -91.89727 36937 ft 513 kts 68°
2026-05-06 23:39 31.66984 -91.81982 36923 ft 512 kts 68°
2026-05-06 23:39 31.69574 -91.74216 36922 ft 510 kts 68°
2026-05-06 23:40 31.72158 -91.66452 36933 ft 509 kts 68°
2026-05-06 23:40 31.74724 -91.58723 36916 ft 507 kts 68°
2026-05-06 23:41 31.77282 -91.51002 36914 ft 506 kts 68°
2026-05-06 23:41 31.79830 -91.43287 36922 ft 505 kts 68°
2026-05-06 23:42 31.82356 -91.35626 36927 ft 504 kts 68°
2026-05-06 23:42 31.84888 -91.27926 36933 ft 504 kts 68°
2026-05-06 23:43 31.87421 -91.20204 36906 ft 507 kts 69°
2026-05-06 23:43 31.89844 -91.12432 36935 ft 505 kts 72°
2026-05-06 23:44 31.91957 -91.04604 36925 ft 504 kts 73°
2026-05-06 23:44 31.94025 -90.96720 36925 ft 503 kts 73°
2026-05-06 23:45 31.96118 -90.88853 36931 ft 503 kts 73°
2026-05-06 23:45 31.98228 -90.81000 36921 ft 502 kts 73°
2026-05-06 23:46 32.00337 -90.73157 36925 ft 502 kts 73°
2026-05-06 23:46 32.02437 -90.65322 36926 ft 501 kts 73°
2026-05-06 23:47 32.04530 -90.57485 36924 ft 501 kts 73°
2026-05-06 23:47 32.06620 -90.49637 36946 ft 503 kts 73°
2026-05-06 23:48 32.08703 -90.41792 36930 ft 505 kts 73°
2026-05-06 23:48 32.10800 -90.33870 36930 ft 506 kts 73°
2026-05-06 23:49 32.12898 -90.25926 36931 ft 507 kts 73°
2026-05-06 23:49 32.14993 -90.17969 36919 ft 507 kts 73°
2026-05-06 23:50 32.17081 -90.10016 36913 ft 507 kts 73°
2026-05-06 23:50 32.20186 -89.98151 36912 ft 505 kts 73°
2026-05-06 23:51 32.22248 -89.90242 36914 ft 504 kts 73°
2026-05-06 23:51 32.24304 -89.82331 36908 ft 503 kts 73°
2026-05-06 23:52 32.26351 -89.74434 36911 ft 501 kts 73°
2026-05-06 23:52 32.28387 -89.66558 36908 ft 501 kts 73°
2026-05-06 23:53 32.30415 -89.58692 36913 ft 500 kts 73°
2026-05-06 23:53 32.32439 -89.50814 36916 ft 500 kts 73°
2026-05-06 23:54 32.34459 -89.42932 36909 ft 501 kts 73°
2026-05-06 23:54 32.36476 -89.35042 36911 ft 502 kts 73°
2026-05-06 23:55 32.38480 -89.27176 36912 ft 503 kts 73°
2026-05-06 23:55 32.40494 -89.19247 36914 ft 504 kts 73°
2026-05-06 23:56 32.42513 -89.11279 36915 ft 505 kts 73°
2026-05-06 23:56 32.44530 -89.03296 36917 ft 507 kts 73°
2026-05-06 23:57 32.46548 -88.95280 36912 ft 508 kts 73°
2026-05-06 23:57 32.48545 -88.87330 36911 ft 506 kts 73°
2026-05-06 23:58 32.50545 -88.79340 36915 ft 506 kts 73°
2026-05-06 23:58 32.52545 -88.71325 36932 ft 508 kts 73°
2026-05-06 23:59 32.54547 -88.63283 36930 ft 508 kts 73°
2026-05-06 23:59 32.56544 -88.55234 36927 ft 508 kts 73°
2026-05-07 00:00 32.58532 -88.47198 36928 ft 508 kts 73°
2026-05-07 00:00 32.60505 -88.39197 36937 ft 508 kts 73°
2026-05-07 00:01 32.62496 -88.31100 36939 ft 509 kts 74°
2026-05-07 00:01 32.64461 -88.23082 36941 ft 509 kts 74°
2026-05-07 00:02 32.66435 -88.15005 36945 ft 509 kts 74°
2026-05-07 00:02 32.68404 -88.06924 36943 ft 510 kts 74°
2026-05-07 00:03 32.70369 -87.98831 36951 ft 510 kts 74°
2026-05-07 00:03 32.72330 -87.90737 36949 ft 510 kts 74°
2026-05-07 00:04 32.74242 -87.82627 36945 ft 510 kts 76°
2026-05-07 00:04 32.75905 -87.74453 36954 ft 510 kts 77°
2026-05-07 00:05 32.77509 -87.66246 36958 ft 510 kts 77°
2026-05-07 00:05 32.79140 -87.58044 36958 ft 510 kts 77°
2026-05-07 00:06 32.80790 -87.49845 36951 ft 510 kts 77°
2026-05-07 00:06 32.82442 -87.41642 36956 ft 509 kts 77°
2026-05-07 00:07 32.84071 -87.33510 36956 ft 509 kts 77°
2026-05-07 00:07 32.85703 -87.25329 36953 ft 508 kts 77°
2026-05-07 00:08 32.87328 -87.17148 36958 ft 508 kts 77°
2026-05-07 00:08 32.88949 -87.08962 36956 ft 508 kts 77°
2026-05-07 00:09 32.90560 -87.00791 36959 ft 507 kts 77°
2026-05-07 00:09 32.92166 -86.92619 36956 ft 507 kts 77°
2026-05-07 00:10 32.93498 -86.85823 36955 ft 507 kts 76°
2026-05-07 00:10 32.95312 -86.76523 36955 ft 508 kts 76°
2026-05-07 00:11 32.96899 -86.68359 36954 ft 508 kts 76°
2026-05-07 00:11 32.98486 -86.60163 36957 ft 508 kts 76°
2026-05-07 00:12 33.00073 -86.51941 36972 ft 509 kts 76°
2026-05-07 00:12 33.01654 -86.43715 36970 ft 510 kts 76°
2026-05-07 00:13 33.03224 -86.35515 36970 ft 511 kts 76°
2026-05-07 00:13 33.04803 -86.27236 36973 ft 511 kts 76°
2026-05-07 00:14 33.06378 -86.18952 36972 ft 512 kts 76°
2026-05-07 00:14 33.08185 -86.10771 36981 ft 512 kts 72°
2026-05-07 00:15 33.10194 -86.02629 36972 ft 513 kts 71°
2026-05-07 00:15 33.12142 -85.94702 36967 ft 513 kts 72°
2026-05-07 00:16 33.14112 -85.86505 36970 ft 514 kts 72°
2026-05-07 00:16 33.16066 -85.78260 36966 ft 515 kts 72°
2026-05-07 00:17 33.18012 -85.70011 36957 ft 516 kts 72°
2026-05-07 00:17 33.19959 -85.61747 36962 ft 517 kts 72°
2026-05-07 00:18 33.21898 -85.53491 36984 ft 518 kts 72°
2026-05-07 00:18 33.23810 -85.45329 36962 ft 519 kts 72°
2026-05-07 00:19 33.25749 -85.37021 36978 ft 520 kts 72°
2026-05-07 00:19 33.27688 -85.28687 36967 ft 521 kts 72°
2026-05-07 00:20 33.29627 -85.20327 36973 ft 521 kts 72°
2026-05-07 00:20 33.31559 -85.11966 36974 ft 522 kts 72°
2026-05-07 00:21 33.33157 -85.05029 36975 ft 521 kts 72°
2026-05-07 00:21 33.35078 -84.96667 36989 ft 521 kts 72°
2026-05-07 00:22 33.37304 -84.86939 36997 ft 522 kts 72°
2026-05-07 00:22 33.38909 -84.79907 37013 ft 524 kts 72°
2026-05-07 00:23 33.40827 -84.71467 36996 ft 524 kts 72°
2026-05-07 00:23 33.42733 -84.63053 37000 ft 524 kts 72°
2026-05-07 00:24 33.44623 -84.54684 37002 ft 523 kts 72°
2026-05-07 00:24 33.46517 -84.46270 36991 ft 523 kts 72°
2026-05-07 00:25 33.48403 -84.37861 37024 ft 523 kts 72°
2026-05-07 00:25 33.50289 -84.29426 37032 ft 527 kts 72°
2026-05-07 00:26 33.52189 -84.20898 37013 ft 530 kts 71°
2026-05-07 00:26 33.54086 -84.12346 36996 ft 531 kts 71°
2026-05-07 00:27 33.55971 -84.03819 36981 ft 531 kts 71°
2026-05-07 00:27 33.57858 -83.95256 36978 ft 531 kts 71°
2026-05-07 00:28 33.59756 -83.86700 36979 ft 530 kts 70°
2026-05-07 00:28 33.61851 -83.78233 36979 ft 528 kts 69°
2026-05-07 00:29 33.63974 -83.69817 36974 ft 526 kts 69°
2026-05-07 00:30 33.68900 -83.53415 36992 ft 514 kts 52°
2026-05-07 00:30 33.72634 -83.46058 36971 ft 516 kts 51°
2026-05-07 00:31 33.76334 -83.38645 36964 ft 519 kts 52°
2026-05-07 00:31 33.79943 -83.31192 36959 ft 517 kts 52°
2026-05-07 00:32 33.83540 -83.23750 36960 ft 512 kts 51°
2026-05-07 00:32 33.87353 -83.16532 36573 ft 515 kts 48°
2026-05-07 00:33 33.89341 -83.12952 36262 ft 510 kts 48°
2026-05-07 00:33 33.91306 -83.09416 35870 ft 506 kts 48°
2026-05-07 00:33 33.93251 -83.05896 35481 ft 502 kts 49°
2026-05-07 00:33 33.95170 -83.02396 35097 ft 499 kts 49°
2026-05-07 00:34 33.97042 -82.98959 34760 ft 494 kts 50°
2026-05-07 00:34 33.98909 -82.95513 34536 ft 491 kts 50°
2026-05-07 00:34 34.00794 -82.92038 34334 ft 500 kts 50°
2026-05-07 00:34 34.02716 -82.88495 34125 ft 509 kts 50°
2026-05-07 00:35 34.04657 -82.84906 33892 ft 510 kts 51°
2026-05-07 00:35 34.06581 -82.81331 33620 ft 505 kts 51°
2026-05-07 00:35 34.08488 -82.77784 33382 ft 505 kts 51°
2026-05-07 00:35 34.10415 -82.74202 33132 ft 507 kts 51°
2026-05-07 00:36 34.12335 -82.70633 32874 ft 507 kts 51°
2026-05-07 00:36 34.14252 -82.67065 32628 ft 507 kts 51°
2026-05-07 00:36 34.16169 -82.63493 32066 ft 506 kts 52°
2026-05-07 00:36 34.18052 -82.59980 31655 ft 501 kts 52°
2026-05-07 00:37 34.19960 -82.56417 31170 ft 497 kts 52°
2026-05-07 00:37 34.21834 -82.52914 30725 ft 493 kts 52°
2026-05-07 00:37 34.23665 -82.49490 30290 ft 490 kts 52°
2026-05-07 00:37 34.25504 -82.46051 29819 ft 486 kts 52°
2026-05-07 00:38 34.27333 -82.42625 29302 ft 482 kts 52°
2026-05-07 00:38 34.29144 -82.39227 28850 ft 477 kts 52°
2026-05-07 00:38 34.30918 -82.35891 28605 ft 468 kts 52°
2026-05-07 00:38 34.32663 -82.32607 28340 ft 460 kts 52°
2026-05-07 00:39 34.34383 -82.29365 27999 ft 454 kts 52°
2026-05-07 00:39 34.36087 -82.26157 27543 ft 452 kts 52°
2026-05-07 00:39 34.37778 -82.22971 27106 ft 449 kts 52°
2026-05-07 00:39 34.39464 -82.19792 26643 ft 447 kts 52°
2026-05-07 00:40 34.41138 -82.16632 26198 ft 445 kts 52°
2026-05-07 00:40 34.42810 -82.13472 25732 ft 445 kts 52°
2026-05-07 00:40 34.44477 -82.10318 25273 ft 443 kts 52°
2026-05-07 00:40 34.46118 -82.07212 24813 ft 443 kts 52°
2026-05-07 00:41 34.47777 -82.04066 24351 ft 442 kts 52°
2026-05-07 00:41 34.49432 -82.00925 23892 ft 441 kts 52°
2026-05-07 00:41 34.51085 -81.97787 23402 ft 441 kts 52°
2026-05-07 00:41 34.52730 -81.94661 22868 ft 439 kts 52°
2026-05-07 00:42 34.54368 -81.91545 22408 ft 436 kts 52°
2026-05-07 00:42 34.55987 -81.88460 21961 ft 433 kts 53°
2026-05-07 00:42 34.57601 -81.85386 21507 ft 430 kts 53°
2026-05-07 00:42 34.59202 -81.82332 21070 ft 427 kts 53°
2026-05-07 00:43 34.60792 -81.79297 20606 ft 425 kts 53°
2026-05-07 00:43 34.62377 -81.76270 20160 ft 423 kts 53°
2026-05-07 00:43 34.63920 -81.73314 19959 ft 406 kts 53°
2026-05-07 00:43 34.65411 -81.70454 19589 ft 395 kts 53°
2026-05-07 00:44 34.66844 -81.67707 19249 ft 386 kts 53°
2026-05-07 00:44 34.68294 -81.64933 18904 ft 384 kts 53°
2026-05-07 00:44 34.69709 -81.62226 18520 ft 384 kts 53°
2026-05-07 00:44 34.71138 -81.59488 18141 ft 383 kts 53°
2026-05-07 00:45 34.72560 -81.56760 17785 ft 380 kts 53°
2026-05-07 00:45 34.73970 -81.54047 17385 ft 379 kts 53°
2026-05-07 00:45 34.75381 -81.51388 17042 ft 369 kts 49°
2026-05-07 00:45 34.77042 -81.49034 16702 ft 363 kts 41°
2026-05-07 00:46 34.78791 -81.46842 16364 ft 360 kts 40°
2026-05-07 00:46 34.80545 -81.44687 16013 ft 358 kts 40°
2026-05-07 00:46 34.82289 -81.42526 15675 ft 357 kts 40°
2026-05-07 00:46 34.84014 -81.40360 15329 ft 356 kts 41°
2026-05-07 00:47 34.85725 -81.38187 14962 ft 355 kts 41°
2026-05-07 00:47 34.87409 -81.36034 14613 ft 354 kts 42°
2026-05-07 00:47 34.89101 -81.33862 14359 ft 349 kts 42°
2026-05-07 00:47 34.90742 -81.31749 14355 ft 338 kts 42°
2026-05-07 00:48 34.92344 -81.29689 14326 ft 335 kts 42°
2026-05-07 00:48 34.93950 -81.27627 14062 ft 337 kts 42°
2026-05-07 00:48 34.95571 -81.25544 13673 ft 339 kts 43°
2026-05-07 00:48 34.97195 -81.23453 13248 ft 340 kts 43°
2026-05-07 00:49 34.98810 -81.21369 12836 ft 335 kts 43°
2026-05-07 00:49 35.00410 -81.19305 12301 ft 335 kts 43°
2026-05-07 00:49 35.02007 -81.17244 11803 ft 333 kts 43°
2026-05-07 00:49 35.03589 -81.15203 11296 ft 332 kts 43°
2026-05-07 00:50 35.05174 -81.13154 10866 ft 329 kts 43°
2026-05-07 00:50 35.06726 -81.11146 10616 ft 318 kts 43°
2026-05-07 00:50 35.08206 -81.09225 10493 ft 304 kts 43°
2026-05-07 00:50 35.09664 -81.07403 10276 ft 291 kts 34°
2026-05-07 00:51 35.11357 -81.06321 10172 ft 265 kts
2026-05-07 00:51 35.13128 -81.06063 9979 ft 250 kts 350°
2026-05-07 00:51 35.14851 -81.06201 9719 ft 247 kts 347°
2026-05-07 00:51 35.16568 -81.06371 9404 ft 248 kts 348°
2026-05-07 00:52 35.18281 -81.06534 9170 ft 246 kts 348°
2026-05-07 00:52 35.19989 -81.06693 8903 ft 246 kts 348°
2026-05-07 00:52 35.21687 -81.06849 8604 ft 243 kts 348°
2026-05-07 00:52 35.23369 -81.07000 8221 ft 242 kts 347°
2026-05-07 00:53 35.25033 -81.07153 7758 ft 244 kts 347°
2026-05-07 00:53 35.26728 -81.07306 7347 ft 244 kts 348°
2026-05-07 00:53 35.28412 -81.07455 6971 ft 242 kts 348°
2026-05-07 00:53 35.30090 -81.07604 6641 ft 237 kts 348°
2026-05-07 00:54 35.31691 -81.07742 6314 ft 228 kts 347°
2026-05-07 00:54 35.33287 -81.07886 5865 ft 232 kts 348°
2026-05-07 00:54 35.34898 -81.08040 5489 ft 231 kts 345°
2026-05-07 00:54 35.36533 -81.08070 5038 ft 239 kts 356°
2026-05-07 00:55 35.38186 -81.07939 4715 ft 236 kts 356°
2026-05-07 00:55 35.39813 -81.07821 4358 ft 235 kts 356°
2026-05-07 00:55 35.41457 -81.07688 4066 ft 236 kts 357°
2026-05-07 00:55 35.43039 -81.07107 4022 ft 244 kts 28°
2026-05-07 00:56 35.44188 -81.05581 4034 ft 249 kts 65°
2026-05-07 00:56 35.44705 -81.03564 4044 ft 247 kts 81°
2026-05-07 00:56 35.45006 -81.01482 4011 ft 246 kts 94°
2026-05-07 00:56 35.44615 -80.99568 4028 ft 228 kts 129°
2026-05-07 00:57 35.43627 -80.98106 4024 ft 220 kts 147°
2026-05-07 00:57 35.42326 -80.97382 4041 ft 198 kts 178°
2026-05-07 00:57 35.40966 -80.97056 4017 ft 198 kts 178°
2026-05-07 00:57 35.39612 -80.96810 3954 ft 196 kts 182°
2026-05-07 00:58 35.38238 -80.96659 3719 ft 201 kts 183°
2026-05-07 00:58 35.36836 -80.96534 3483 ft 201 kts 184°
2026-05-07 00:58 35.35470 -80.96418 3220 ft 192 kts 184°
2026-05-07 00:58 35.34170 -80.96303 2969 ft 181 kts 184°
2026-05-07 00:59 35.31860 -80.96100 2519 ft 153 kts 186°
2026-05-07 00:59 35.30833 -80.96013 2352 ft 143 kts 184°
2026-05-07 00:59 35.29864 -80.95930 2203 ft 135 kts 185°
2026-05-07 01:00 35.28937 -80.95852 2003 ft 132 kts 185°
2026-05-07 01:00 35.27997 -80.95773 1819 ft 137 kts 181°
2026-05-07 01:00 35.27052 -80.95687 1678 ft 136 kts 182°
2026-05-07 01:00 35.26077 -80.95606 1470 ft 145 kts 180°
2026-05-07 01:01 35.25063 -80.95516 1256 ft 146 kts 179°
2026-05-07 01:01 35.24044 -80.95436 1057 ft 148 kts 177°
2026-05-07 01:01 35.23008 -80.95333 867 ft 148 kts 178°
2026-05-07 01:01 35.22057 -80.95267 739 ft 126 kts 172°
2026-05-07 01:02 35.21342 -80.95198 724 ft 76 kts 176°
2026-05-07 01:02 35.20990 -80.95167 719 ft 39 kts 176°
2026-05-07 01:02 35.20731 -80.95120 717 ft 29 kts 158°
2026-05-07 01:02 35.20632 -80.95056 714 ft 12 kts 146°
2026-05-07 01:03 35.20589 -80.95021 713 ft 0 kts 147°
2026-05-07 01:03 35.20587 -80.95019 713 ft 1 kts 147°
2026-05-07 01:03 35.20579 -80.95001 717 ft 4 kts 104°
2026-05-07 01:04 35.20586 -80.94963 713 ft 6 kts 65°
2026-05-07 01:04 35.20621 -80.94936 714 ft 7 kts
2026-05-07 01:04 35.20683 -80.94939 716 ft 11 kts 356°
2026-05-07 01:04 35.20767 -80.94946 715 ft 12 kts 355°
2026-05-07 01:05 35.20855 -80.94954 716 ft 13 kts 356°
2026-05-07 01:05 35.20949 -80.94962 717 ft 13 kts 355°
2026-05-07 01:05 35.21040 -80.94969 719 ft 13 kts 356°
2026-05-07 01:05 35.21128 -80.94977 721 ft 13 kts 356°
2026-05-07 01:06 35.21214 -80.94985 725 ft 12 kts 356°
2026-05-07 01:06 35.21299 -80.94992 723 ft 12 kts 356°
2026-05-07 01:06 35.21380 -80.94999 727 ft 12 kts 356°
2026-05-07 01:06 35.21460 -80.95006 727 ft 11 kts 356°
2026-05-07 01:07 35.21537 -80.95013 729 ft 11 kts 356°
2026-05-07 01:07 35.21613 -80.95019 730 ft 11 kts 356°
2026-05-07 01:07 35.21686 -80.95025 732 ft 11 kts 356°
2026-05-07 01:07 35.21764 -80.95032 733 ft 12 kts 356°
2026-05-07 01:08 35.21843 -80.95031 735 ft 11 kts 22°
2026-05-07 01:08 35.21879 -80.94971 734 ft 7 kts 41°
2026-05-07 01:08 35.21929 -80.94963 736 ft 7 kts 356°
2026-05-07 01:08 35.21962 -80.94965 737 ft 7 kts 357°
2026-05-07 01:09 35.22010 -80.94969 738 ft 7 kts 356°
2026-05-07 01:09 35.22058 -80.94970 738 ft 7 kts
2026-05-07 01:09 35.22090 -80.94912 739 ft 8 kts 79°
2026-05-07 01:09 35.22103 -80.94847 740 ft 8 kts 82°
2026-05-07 01:10 35.22097 -80.94825 740 ft 2 kts 129°
2026-05-07 01:10 35.22080 -80.94823 738 ft 2 kts 185°
2026-05-07 01:10 35.22062 -80.94825 739 ft 3 kts 183°
2026-05-07 01:10 35.22060 -80.94825 739 ft 0 kts 183°
2026-05-07 01:11 35.22059 -80.94825 739 ft 0 kts 183°
2026-05-07 01:11 35.22055 -80.94825 739 ft 0 kts 183°
2026-05-07 01:12 35.22056 -80.94825 739 ft 0 kts 183°
2026-05-07 01:12 35.22057 -80.94825 739 ft 1 kts 183°
2026-05-07 01:12 35.22064 -80.94825 739 ft 0 kts 183°
2026-05-07 01:13 35.22071 -80.94821 739 ft 0 kts 154°